Location: Val-d'Or
(48.1170°N, 77.7670°W)
Time: 20:11:28
(UTC-04:00)

ISS - Pass Details

Date: 17 May 2018
Orbit: 402 x 407 km, 51.6° (Epoch: 26 May)

Event Time Altitude Azimuth Distance (km) Brightness Sun altitude
Exits shadow 02:49:27 15° 289° (WNW) 1,173 -1.6 -18.8°
Maximum altitude 02:51:50 42° 358° (N) 584 -2.6 -18.6°
Drops below altitude 10° 02:54:59 10° 71° (ENE) 1,458 -0.4 -18.4°
Sets 02:57:08 0° 79° (E) 2,318 0.6 -18.2°
